Simultaneous Nadir Overpasses (SNOs) Predictions

Prediction of SNOs between NPP and PACE Satellite Orbit:

Table of predicted SNOs for the next 14.0 days since TLE Epoch: 9/21/2024
Index Date (NPP) Time (NPP) Lat,Lon (NPP) SZA (NPP ) Date (PACE) Time (PACE) Lat,Lon (PACE) SZA (PACE ) Distance(km) Time Diff (sec)
1 09/23/2024 06:42:15 -79.90,-138.37 97.93 09/23/2024 06:42:09 -79.89,-138.26 97.94 2.26 6
2 09/25/2024 10:17:53 79.95, -12.73 82.98 09/25/2024 10:18:23 79.95, -12.73 82.96 0.18 30
3 09/25/2024 11:08:31 -79.74, 156.58 97.39 09/25/2024 11:07:26 -79.74, 156.56 97.36 0.52 65
4 09/27/2024 13:53:30 -79.96, 113.18 96.18 09/27/2024 13:54:35 -79.97, 113.04 96.19 2.75 65
5 09/27/2024 14:44:09 79.79, -77.82 83.52 09/27/2024 14:43:39 79.80, -77.91 83.55 1.83 30
6 09/29/2024 18:19:47 -79.85, 47.75 95.57 09/29/2024 18:19:51 -79.86, 47.61 95.55 3.09 4
7 10/01/2024 21:55:25 79.91, 173.21 85.37 10/01/2024 21:56:02 79.92, 173.10 85.36 2.17 37
8 10/01/2024 22:46:04 -79.73, -17.75 94.95 10/01/2024 22:45:06 -79.74, -17.85 94.91 2.21 58
9 10/04/2024 01:31:04 -80.00, -61.62 93.66 10/04/2024 01:32:13 -80.00, -61.63 93.69 0.31 69



Historial Predications of SNOs between NPP and PACE
